SCP
3 3 3 3 2 2 2 2 2 1 1 1 2 3 3 3 1 1 1 0 0 0 0 0 0 0 0 0 0 0 0 0 0 0 0 0 0 0
3 3 2 2 2 2 2 2 2 1 1 1 2 2 3 2 1 1 1 1 0 0 0 0 0 0 0 0 0 0 0 0 0 0 0 0 0 1
2 2 2 2 2 2 2 3 2 2 1 1 1 2 2 2 1 1 1 1 0 0 0 0 0 0 0 0 0 0 0 0 0 0 0 0 1 1
3 3 2 2 2 2 2 3 3 2 2 1 1 2 2 2 2 1 1 1 1 0 0 0 0 0 0 0 0 0 0 0 0 0 0 0 1 1
4 3 3 3 3 3 3 3 3 3 2 2 1 2 2 2 1 1 1 1 1 0 0 0 0 0 0 0 0 0 0 0 0 0 0 0 0 0
4 4 4 4 3 3 3 3 3 3 2 2 1 1 1 1 1 1 1 1 1 1 0 0 0 0 0 0 0 0 0 0 0 0 0 0 0 0
5 5 4 4 3 3 3 3 2 2 2 2 1 1 1 1 1 1 1 1 1 1 1 1 0 0 0 0 0 0 0 0 0 0 0 0 0 0
6 6 4 3 3 2 2 2 1 1 1 1 1 1 1 1 1 1 1 1 1 1 1 1 1 1 0 0 0 0 0 0 0 0 0 0 0 0
6 6 5 3 2 2 1 1 1 1 1 1 1 1 1 1 1 1 1 1 1 1 1 1 1 1 1 0 0 0 0 0 0 0 0 0 0 0
5 5 5 3 2 2 1 1 1 1 1 1 1 1 1 1 1 1 1 1 1 1 1 1 1 1 1 1 0 0 0 0 0 0 0 0 0 0
4 4 4 3 2 1 1 1 1 1 1 0 1 1 1 1 1 1 1 1 1 1 1 1 1 1 1 1 0 0 0 0 0 0 0 0 0 0
3 3 3 2 1 1 1 1 1 1 1 1 1 1 1 1 1 1 1 1 1 1 1 1 1 1 1 1 1 0 0 0 0 0 0 0 0 0
2 2 2 1 1 0 0 1 1 1 1 1 1 1 1 1 1 1 1 1 1 1 1 1 1 1 1 1 0 0 0 0 0 0 0 0 0 0
2 2 1 1 0 0 0 1 1 1 1 1 1 1 2 2 2 2 2 1 1 1 1 1 1 1 1 1 0 0 0 0 0 0 0 0 0 0
1 1 1 0 0 0 0 0 0 1 1 1 1 1 1 2 2 2 2 2 2 1 1 1 1 1 1 1 1 1 0 0 0 0 0 0 0 0
1 0 0 0 0 0 1 1 1 1 1 1 2 2 2 2 2 2 2 2 2 1 1 2 2 1 1 1 1 1 1 1 1 0 0 0 0 1
1 1 1 1 1 1 1 1 2 2 2 2 2 2 2 2 2 2 2 2 2 2 1 2 2 1 1 1 1 1 1 1 1 1 1 0 0 1
1 1 2 2 2 1 1 1 2 2 2 2 2 3 2 2 2 2 2 2 2 2 2 2 2 2 1 1 1 1 1 1 1 1 1 1 0 1
1 2 3 3 3 2 2 2 1 2 2 2 2 3 3 3 2 2 2 2 2 2 2 2 2 2 1 1 1 1 1 1 1 1 1 1 1 1
1 2 3 3 3 3 2 2 2 1 2 2 2 3 3 3 3 2 2 2 2 2 2 2 2 2 1 1 1 1 1 1 1 1 1 1 1 1
2 2 3 3 2 2 2 2 2 2 2 3 3 3 3 3 3 2 2 2 2 2 2 2 2 2 1 1 1 1 1 1 1 1 1 1 1 1
3 3 3 2 2 2 2 2 2 2 2 2 3 3 3 3 3 2 2 2 2 2 2 2 2 2 1 1 1 1 1 1 0 0 0 0 1 1
4 4 3 2 2 1 1 1 2 2 1 2 2 2 3 3 3 2 2 2 2 2 2 2 2 2 2 1 2 2 1 1 0 0 0 0 0 0
Wind_Speed
2 2 2 2 2 2 1 1 1 2 2 1 1 1 1 2 5 4 4 7 8 8 8 8 8 8 8 7 7 6 6 6 6 5 5 5 5 5
1 1 2 2 2 2 2 2 1 2 2 1 0 1 1 2 4 3 4 9 8 8 8 8 7 7 7 7 7 7 7 6 6 6 5 5 4 4
2 2 2 2 2 2 2 1 1 1 1 1 0 0 1 1 3 2 4 5 5 8 9 9 8 8 8 7 7 7 7 6 6 6 5 5 5 5
2 2 2 2 1 2 2 2 1 1 1 1 1 0 0 1 3 2 2 3 4 7 9 9 9 9 8 8 8 7 7 7 6 6 5 5 5 4
1 1 1 2 2 2 2 2 2 2 0 1 0 0 0 1 2 1 1 1 2 5 8 8 8 9 9 8 8 8 7 7 7 6 6 5 5 4
2 1 1 1 1 2 2 1 1 1 1 0 0 1 1 1 1 2 1 1 2 3 4 6 8 9 8 8 8 8 7 7 7 7 6 5 5 4
2 1 1 2 3 2 2 1 1 0 0 0 0 0 0 1 1 1 2 2 1 2 3 3 4 4 5 6 7 7 8 7 7 7 7 6 6 5
2 2 1 1 2 3 2 3 2 1 1 0 0 0 0 0 0 1 1 1 1 1 2 2 4 4 4 4 7 9 8 8 8 7 7 6 6 6
1 1 2 2 2 1 1 1 2 1 0 0 0 0 0 0 1 1 1 1 1 2 2 2 2 3 3 4 9 10 9 9 9 8 7 6 6 6
1 1 1 1 2 2 1 0 0 0 1 2 1 1 0 0 0 1 1 1 1 1 2 2 2 2 3 3 9 11 10 10 10 9 8 8 7 6
0 1 1 1 2 2 1 1 1 1 1 1 2 2 2 1 1 1 1 1 1 1 1 2 2 2 2 2 5 10 10 10 10 10 9 9 9 7
0 1 2 1 1 1 1 2 1 2 2 1 1 1 2 3 3 3 2 2 2 1 2 2 2 1 1 1 3 4 5 8 10 10 9 9 9 5
1 1 1 1 1 2 2 2 2 3 3 2 2 2 2 2 3 3 3 3 2 2 2 2 2 2 2 1 2 3 4 4 5 5 7 9 10 8
3 1 0 1 2 3 3 3 3 3 3 2 2 1 1 2 2 3 3 3 3 3 2 2 2 3 2 2 2 3 3 4 4 4 4 7 9 10
3 4 3 4 4 4 5 5 4 3 2 2 2 2 1 2 1 2 2 2 2 3 3 3 3 2 2 2 2 3 3 3 4 4 4 5 5 5
3 3 4 4 4 4 3 3 3 3 2 2 2 1 1 1 1 1 1 1 2 2 2 2 3 3 2 2 3 3 3 3 3 4 3 3 3 4
2 2 3 2 3 3 2 2 2 2 3 2 2 2 2 1 1 1 2 1 2 2 2 1 2 2 2 2 2 3 2 2 3 3 3 3 4 4
2 3 3 2 2 2 2 2 2 2 2 2 2 2 2 2 2 1 1 2 2 2 2 2 1 1 1 2 3 3 2 2 2 3 3 3 3 3
2 3 2 2 2 2 1 2 1 1 1 2 2 2 2 2 2 1 1 2 2 2 2 2 2 2 3 3 3 3 3 3 3 3 3 3 3 3
2 2 2 2 2 2 2 2 2 2 2 2 2 2 2 2 2 2 2 2 2 2 2 2 2 2 3 3 2 2 5 4 3 3 3 3 2 2
1 1 2 2 2 2 2 1 2 2 2 2 2 2 2 2 2 2 2 2 2 2 2 2 3 3 2 1 2 2 2 4 4 3 3 3 3 2
1 1 2 2 2 2 2 2 2 2 2 2 2 2 2 2 2 2 1 1 2 2 2 2 2 2 2 3 3 3 2 2 3 4 4 4 3 4
1 1 1 1 1 1 2 2 3 3 2 2 3 3 3 2 2 2 2 2 1 2 2 2 2 2 3 3 3 3 3 3 2 2 2 4 6 6
Wind_Direction
294 300 287 289 279 269 246 217 208 242 236 198 144 140 128 121 151 167 157 172 180 181 179 178 176 174 174 177 181 181 179 176 175 178 188 196 202 206
287 312 306 304 309 288 273 258 244 239 251 224 171 105 100 133 146 159 147 160 177 178 178 178 176 173 172 174 175 175 174 173 171 172 172 173 174 181
301 301 303 310 323 319 306 291 269 258 239 257 299 77 115 105 130 157 157 163 169 179 177 175 172 167 166 166 167 166 166 168 171 172 169 170 177 185
307 318 315 302 297 303 317 315 315 290 213 236 270 343 47 150 150 169 166 167 154 169 171 171 170 166 165 165 165 162 162 162 167 171 172 174 177 181
314 320 320 330 321 310 305 317 315 310 75 152 258 43 224 186 130 135 126 128 162 152 161 165 166 164 163 164 165 164 162 163 166 167 170 176 180 183
323 319 331 346 328 318 303 312 327 351 6 109 197 198 210 169 145 149 151 161 168 169 156 163 165 165 164 163 168 171 173 174 173 171 173 178 184 189
330 342 16 51 52 31 349 5 2 3 329 226 193 151 166 115 175 178 149 152 162 169 151 157 157 165 172 174 174 171 173 176 179 181 182 185 188 193
338 344 14 81 73 65 46 40 47 22 350 358 4 286 259 152 142 189 165 175 197 176 153 166 157 164 174 180 176 175 179 179 180 183 187 193 197 200
344 349 331 18 67 81 50 46 49 18 358 231 308 312 291 228 160 191 192 182 196 176 160 179 169 168 178 179 170 177 182 185 187 188 191 197 204 209
345 353 8 22 4 18 299 187 150 286 241 224 196 260 327 26 251 213 189 173 190 196 174 179 186 186 186 171 177 182 187 192 195 195 196 202 209 215
281 14 8 33 358 354 317 307 286 286 259 187 179 190 183 216 231 194 200 169 195 211 188 173 189 177 172 180 183 188 191 195 202 206 206 208 211 215
214 136 76 30 340 337 305 302 303 312 320 322 245 232 223 214 208 204 210 207 199 206 189 169 185 175 184 191 172 180 195 206 210 211 212 214 209 207
297 260 144 158 282 268 268 271 274 293 290 271 247 227 214 212 201 196 203 210 213 224 191 170 196 200 184 188 187 188 191 197 203 216 220 221 212 201
309 313 246 253 281 272 256 254 269 290 278 279 274 252 224 210 204 199 201 212 216 221 207 195 206 201 195 201 208 190 193 199 196 202 206 211 214 214
325 335 305 260 261 257 246 245 252 257 263 270 277 266 259 240 212 195 199 204 213 224 221 211 209 212 202 211 200 193 195 201 197 201 204 203 200 197
295 296 281 263 258 263 250 234 229 244 254 253 260 279 289 268 234 202 203 200 214 239 230 213 201 203 222 221 209 211 197 198 200 206 202 203 206 202
282 259 257 249 252 247 239 225 219 231 246 251 246 252 257 258 246 221 211 217 230 232 232 231 211 200 217 229 222 221 208 210 206 204 205 214 214 212
269 268 268 261 264 275 285 275 245 236 248 246 242 240 244 242 246 230 207 218 235 239 234 226 204 208 254 260 222 218 222 228 220 209 206 216 227 221
254 270 284 291 291 299 301 308 309 305 286 271 253 246 242 241 234 229 223 229 236 238 235 230 214 207 225 245 249 208 213 231 228 221 215 217 227 227
244 269 291 303 313 319 326 330 326 320 306 294 283 265 250 239 233 238 232 229 236 239 245 236 217 217 227 237 244 231 212 222 228 226 226 229 231 223
269 279 288 297 310 318 317 311 310 311 315 307 285 273 270 265 254 247 235 235 241 250 254 254 236 222 231 247 255 248 223 213 226 227 222 226 233 228
292 295 291 293 301 310 313 307 304 307 315 316 311 307 304 298 284 272 262 249 247 252 261 262 251 233 233 238 249 242 236 234 245 250 245 222 214 222
259 270 272 278 311 324 307 308 318 318 325 343 343 328 318 303 289 278 267 254 260 271 271 275 268 247 239 236 245 250 246 242 235 227 245 242 222 219